Location: Ajisawe
(8.4333°N, 4.3833°E)
Time: 00:52:14
(UTC+00:00)

Courier 1B Rocket - Pass Details

Date: 24 April 2021
Orbit: 920 x 1202 km, 28.3° (Epoch: 13 May)

Event Time Altitude Azimuth Distance (km) Brightness Sun altitude
Rises 18:34:46 0° 302° (WNW) 3,591 9.6 -11.1°
Reaches altitude 10° 18:39:03 10° 329° (NNW) 2,692 8.0 -12.1°
Maximum altitude 18:41:58 13° 356° (N) 2,502 7.4 -12.8°
Drops below altitude 10° 18:44:58 10° 23° (NNE) 2,773 7.3 -13.5°
Sets 18:49:31 0° 49° (NE) 3,796 7.8 -14.6°
